South Haven, MI

8:43 AM EST on January 16, 2018 (GMT -0500)
South Haven

Weather History for KLWA - March, 2014

Change the Weather History Date:

Wednesday, March 19, 2014

  Actual Average (KBEH) Record (KBEH)
Temperature  
Mean Temperature 38 °F -  
Max Temperature 43 °F 45 °F 78 °F (2012)
Min Temperature 33 °F 28 °F 14 °F (1950)
Degree Days  
Heating Degree Days 27    
Moisture  
Dew Point 36 °F    
Average Humidity 92    
Maximum Humidity 99    
Minimum Humidity 73    
Precipitation  
Precipitation 0.00 in - - ()
Sea Level Pressure  
Sea Level Pressure 29.70 in    
Wind  
Wind Speed 9 mph (SW)    
Max Wind Speed 16 mph    
Max Gust Speed 25 mph    
Visibility 5 miles    
Events Rain , Snow    
Averages and records for this station are not official NWS values.
T = Trace of Precipitation, MM = Missing Value Source: NWS Daily Summary

Daily Weather History Graph

Daily Weather History Graph

Search for Another Location

Airport or City:

Trip Planner

Search our weather history database for the weather conditions in past years. The results will help you decide how hot, cold, wet, or windy it might be!

Date:

Astronomy

Mar. 19, 2014 Rise Set
Actual Time 7:50 AM EDT 7:56 PM EDT
Civil Twilight 7:22 AM EDT 8:24 PM EDT
Nautical Twilight 6:49 AM EDT 8:57 PM EDT
Astronomical Twilight 6:15 AM EDT 9:30 PM EDT
Moon 11:18 PM EDT (3/19) 9:11 AM EDT (3/19)
Length of Visible Light 13h 02m
Length of Day
12h 06m
Waning Gibbous, 91% of the Moon is Illuminated
Mar 19
Waning Gibbous
Mar 23
Last Quarter
Mar 30
New
Apr 7
First Quarter
Apr 15
Full

Hourly Weather History & Observations

Time (EDT) Temp. Windchill Dew Point Humidity Pressure Visibility Wind Dir Wind Speed Gust Speed Precip Events Conditions
12:15 AM 39.2 °F 33.6 °F 32.0 °F 75% 29.79 in 10.0 mi SE 8.1 mph - N/A   Scattered Clouds
12:35 AM 40.1 °F 34.7 °F 32.0 °F 73% 29.79 in 10.0 mi SE 8.1 mph - N/A   Mostly Cloudy
12:55 AM 40.1 °F 34.1 °F 32.0 °F 73% 29.78 in 10.0 mi SE 9.2 mph - N/A   Overcast
1:15 AM 40.1 °F 33.6 °F 32.0 °F 73% 29.76 in 10.0 mi ESE 10.4 mph - N/A   Overcast
1:35 AM 40.1 °F 36.1 °F 32.4 °F 74% 29.75 in 10.0 mi SE 5.8 mph - N/A   Overcast
1:55 AM 40.1 °F 35.3 °F 32.7 °F 75% 29.74 in 10.0 mi SE 6.9 mph 16.1 mph N/A   Overcast
2:15 AM 39.6 °F 34.0 °F 32.4 °F 75% 29.73 in 10.0 mi ESE 8.1 mph - N/A   Overcast
2:35 AM 39.6 °F 34.7 °F 32.5 °F 76% 29.72 in 10.0 mi ESE 6.9 mph - N/A   Overcast
2:55 AM 39.4 °F 34.5 °F 32.9 °F 78% 29.71 in 10.0 mi SE 6.9 mph - N/A   Overcast
3:15 AM 40.1 °F 36.1 °F 33.3 °F 77% 29.69 in 10.0 mi SSE 5.8 mph - N/A   Overcast
3:35 AM 40.1 °F 34.1 °F 33.3 °F 77% 29.69 in 10.0 mi SE 9.2 mph - N/A   Overcast
3:55 AM 39.4 °F 34.5 °F 34.2 °F 82% 29.68 in 5.0 mi SE 6.9 mph - N/A   Drizzle
4:15 AM 38.3 °F 33.2 °F 35.6 °F 90% 29.67 in 3.0 mi SE 6.9 mph - N/A Rain Light Rain
4:35 AM 38.3 °F 32.5 °F 36.5 °F 93% 29.65 in 4.0 mi SE 8.1 mph - N/A Rain Light Rain
4:55 AM 38.7 °F 33.6 °F 36.9 °F 93% 29.65 in 5.0 mi SSE 6.9 mph - N/A   Overcast
5:15 AM 39.0 °F 35.7 °F 37.4 °F 94% 29.64 in 2.5 mi SE 4.6 mph - N/A Rain Light Rain
5:35 AM 39.4 °F 34.5 °F 38.3 °F 96% 29.63 in 4.0 mi SSE 6.9 mph - N/A Rain Light Rain
5:55 AM 39.6 °F 35.4 °F 38.3 °F 95% 29.63 in 4.0 mi SSE 5.8 mph - N/A   Overcast
6:15 AM 40.1 °F 36.9 °F 38.5 °F 94% 29.63 in 5.0 mi SSE 4.6 mph - N/A   Overcast
6:35 AM 40.1 °F 36.1 °F 38.7 °F 95% 29.62 in 5.0 mi SSE 5.8 mph - N/A   Overcast
6:55 AM 40.3 °F 37.1 °F 38.8 °F 95% 29.62 in 5.0 mi SSE 4.6 mph - N/A   Light Drizzle
7:15 AM 40.3 °F 37.1 °F 39.0 °F 95% 29.61 in 5.0 mi SSE 4.6 mph - N/A   Overcast
7:35 AM 40.5 °F 36.5 °F 39.2 °F 95% 29.61 in 5.0 mi SSE 5.8 mph - N/A   Overcast
7:55 AM 40.8 °F 36.9 °F 39.4 °F 95% 29.61 in 5.0 mi South 5.8 mph - N/A   Overcast
8:15 AM 41.0 °F 37.1 °F 39.6 °F 95% 29.60 in 4.0 mi South 5.8 mph - N/A Rain Heavy Rain
8:35 AM 41.0 °F 37.1 °F 40.1 °F 97% 29.60 in 1.8 mi South 5.8 mph - N/A Rain Light Rain
8:55 AM 41.2 °F 37.3 °F 40.5 °F 97% 29.59 in 1.8 mi South 5.8 mph - N/A Rain Light Rain
9:15 AM 41.9 °F 36.3 °F 41.2 °F 97% 29.59 in 2.5 mi South 9.2 mph - N/A Rain Light Rain
9:35 AM 42.4 °F 36.1 °F 41.7 °F 97% 29.58 in 3.0 mi South 11.5 mph - N/A Rain Light Rain
9:55 AM 43.0 °F 38.2 °F 42.1 °F 97% 29.58 in 4.0 mi South 8.1 mph - N/A Rain Rain
10:15 AM 43.3 °F 37.7 °F 42.3 °F 96% 29.58 in 4.0 mi South 10.4 mph - N/A Rain Light Rain
10:35 AM 43.3 °F 38.6 °F 42.4 °F 97% 29.57 in 4.0 mi South 8.1 mph - N/A Rain Light Rain
10:55 AM 43.9 °F 39.9 °F 42.8 °F 96% 29.57 in 4.0 mi SSW 6.9 mph - N/A   Drizzle
11:15 AM 43.9 °F 37.5 °F 42.8 °F 96% 29.57 in 4.0 mi SW 12.7 mph 17.3 mph N/A   Drizzle
11:35 AM 43.7 °F 36.6 °F 42.8 °F 97% 29.58 in 4.0 mi WSW 15.0 mph 24.2 mph N/A Rain Light Rain
11:55 AM 42.8 °F 35.4 °F 42.1 °F 97% 29.58 in 3.0 mi SW 15.0 mph 19.6 mph N/A Rain Rain
12:15 PM 43.2 °F 35.9 °F 42.8 °F 99% 29.58 in 4.0 mi WSW 15.0 mph 20.7 mph N/A Rain Light Rain
12:35 PM 43.0 °F 36.0 °F 42.3 °F 97% 29.59 in 3.0 mi SW 13.8 mph 19.6 mph N/A Rain Light Rain
12:55 PM 43.0 °F 36.4 °F 42.1 °F 97% 29.59 in 3.0 mi SW 12.7 mph 18.4 mph N/A   Drizzle
1:15 PM 42.1 °F 36.6 °F 41.4 °F 97% 29.60 in 2.5 mi SW 9.2 mph 16.1 mph N/A   Drizzle
1:35 PM 41.9 °F 35.9 °F 41.4 °F 98% 29.60 in 2.5 mi WSW 10.4 mph 17.3 mph N/A   Drizzle
1:55 PM 40.1 °F 32.4 °F 39.4 °F 97% 29.61 in 1.0 mi West 13.8 mph 18.4 mph N/A Rain Rain
2:15 PM 38.1 °F 31.2 °F 37.4 °F 97% 29.62 in 0.2 mi West 10.4 mph 16.1 mph N/A   Drizzle
2:35 PM 36.7 °F 29.4 °F 36.5 °F 99% 29.64 in 0.5 mi West 10.4 mph - N/A Rain Light Rain
2:55 PM 35.4 °F 27.8 °F 34.9 °F 98% 29.65 in 1.0 mi WNW 10.4 mph - N/A   Overcast
3:15 PM 34.3 °F 27.0 °F 34.0 °F 99% 29.66 in 1.0 mi West 9.2 mph - N/A Rain Light Rain
3:35 PM 34.0 °F 26.0 °F 33.4 °F 98% 29.68 in 0.8 mi West 10.4 mph - N/A Snow Light Snow
3:55 PM 33.8 °F 26.4 °F 33.3 °F 98% 29.69 in 0.8 mi WNW 9.2 mph - N/A   Overcast
4:15 PM 34.0 °F 26.6 °F 33.8 °F 99% 29.70 in 0.8 mi WNW 9.2 mph 17.3 mph N/A   Overcast
4:35 PM 34.0 °F 26.6 °F 33.4 °F 98% 29.72 in 1.2 mi WNW 9.2 mph 16.1 mph N/A Snow Light Snow
4:55 PM 33.8 °F 26.4 °F 32.9 °F 96% 29.73 in 3.0 mi WNW 9.2 mph - N/A   Overcast
5:15 PM 33.8 °F 25.8 °F 32.9 °F 96% 29.74 in 2.5 mi West 10.4 mph - N/A Snow Light Snow
5:35 PM 33.8 °F 27.7 °F 32.9 °F 96% 29.74 in 2.5 mi WNW 6.9 mph - N/A   Overcast
5:55 PM 33.8 °F 27.0 °F 32.9 °F 96% 29.76 in 2.5 mi West 8.1 mph - N/A   Overcast
6:15 PM 34.2 °F 27.5 °F 32.9 °F 95% 29.77 in 4.0 mi West 8.1 mph - N/A   Overcast
6:35 PM 34.3 °F 25.9 °F 32.9 °F 94% 29.78 in 5.0 mi West 11.5 mph 16.1 mph N/A   Overcast
6:55 PM 34.7 °F 26.9 °F 32.9 °F 93% 29.79 in 5.0 mi West 10.4 mph 17.3 mph N/A   Overcast
7:15 PM 34.7 °F 26.4 °F 32.9 °F 93% 29.80 in 5.0 mi West 11.5 mph 17.3 mph N/A   Overcast
7:35 PM 35.1 °F 26.9 °F 33.1 °F 92% 29.81 in 5.0 mi West 11.5 mph 17.3 mph N/A   Overcast
7:55 PM 35.2 °F 28.1 °F 33.1 °F 92% 29.81 in 5.0 mi West 9.2 mph 16.1 mph N/A   Overcast
8:15 PM 35.6 °F 27.5 °F 33.1 °F 91% 29.82 in 7.0 mi West 11.5 mph 18.4 mph N/A   Overcast
8:35 PM 35.6 °F 26.6 °F 32.9 °F 90% 29.82 in 7.0 mi West 13.8 mph 20.7 mph N/A   Overcast
8:55 PM 35.6 °F 27.1 °F 33.1 °F 91% 29.84 in 7.0 mi West 12.7 mph 20.7 mph N/A   Overcast
9:15 PM 35.6 °F 25.9 °F 32.9 °F 90% 29.85 in 7.0 mi WSW 16.1 mph 25.3 mph N/A   Overcast
9:35 PM 34.9 °F 26.6 °F 32.7 °F 92% 29.85 in 5.0 mi West 11.5 mph 20.7 mph N/A   Overcast
9:55 PM 34.7 °F 25.9 °F 32.2 °F 91% 29.86 in 4.0 mi West 12.7 mph 21.9 mph N/A   Overcast
10:15 PM 34.3 °F 25.5 °F 32.0 °F 91% 29.87 in 5.0 mi West 12.7 mph 17.3 mph N/A   Overcast
10:35 PM 34.2 °F 26.2 °F 32.0 °F 92% 29.88 in 5.0 mi West 10.4 mph 19.6 mph N/A   Overcast
10:55 PM 34.0 °F 25.5 °F 32.0 °F 92% 29.89 in 5.0 mi West 11.5 mph 18.4 mph N/A   Overcast
11:15 PM 34.0 °F 25.0 °F 32.0 °F 92% 29.89 in 5.0 mi West 12.7 mph 19.6 mph N/A   Overcast
11:35 PM 34.0 °F 25.5 °F 31.8 °F 92% 29.90 in 7.0 mi West 11.5 mph 21.9 mph N/A   Overcast
11:55 PM 34.0 °F 25.0 °F 30.9 °F 89% 29.91 in 7.0 mi West 12.7 mph 18.4 mph N/A   Overcast